Air Resources Laboratory banner image
Air Resources Laboratory web site National Oceanic and Atmospheric Administration (NOAA)

ia roundup


Office: DMX

ASUS43 KDMX 162301
RWRIA

WEATHER ROUNDUP FOR IOWA
NATIONAL WEATHER SERVICE DES MOINES IA
600 PM CDT TUE OCT 16 2018

NOTE: "FAIR" INDICATES FEW OR NO CLOUDS BELOW 12,000 FEET WITH NO
SIGNIFICANT WEATHER AND/OR OBSTRUCTIONS TO VISIBILITY.

* - THESE STATIONS ARE NOT NWS STATIONS...THUS NOT UNDER NWS
QUALITY CONTROL.  THEY ALSO DO NOT REPORT WEATHER SUCH
AS PRECIPITATION OR FOG.

IAZ001>003-012>014-020>022-031>034-043>046-170000-
   NORTHWEST IOWA

CITY           SKY/WX    TMP DP  RH WIND       PRES   REMARKS
CARROLL *      CLOUDY    61  39  44 NW14G22   30.12R
CHEROKEE *     PTCLDY    58  36  43 W12       30.13S
DENISON *      CLEAR     61  39  44 NW13G21   30.15R
LE MARS *      PTCLDY    59  37  44 NW9       30.15R
ORANGE CITY *  CLEAR     57  36  44 NW16G22   30.15R
SHELDON *      CLEAR     57  30  35 NW12G20   30.11S
SIOUX CITY     PTCLDY    60  40  47 NW12G23   30.15R
SPENCER        CLEAR     57  30  35 NW17      30.12R
STORM LAKE *   CLEAR     57  36  44 NW17G23   30.12R
$$

IAZ055>058-069>071-079>083-090>094-170000-
   SOUTHWEST IOWA

CITY           SKY/WX    TMP DP  RH WIND       PRES   REMARKS
ATLANTIC *     PTCLDY    61  41  48 N8        30.13R
AUDUBON *      CLEAR     61  37  41 NW6       30.14R
CLARINDA *     CLEAR     64  39  39 NW7       30.16S
COUNCIL BLFS * CLEAR     64  37  36 N10G18    30.13S
CRESTON *      CLEAR     61  41  48 W9        30.14S
HARLAN  *      MOCLDY    61  39  44 NW9       30.14R
LAMONI         CLEAR     62  40  44 W7        30.13S
RED OAK *      CLEAR     64  39  39 W6        30.14S
SHENANDOAH *   CLEAR     66  41  39 W7        30.14S
$$

IAZ047>049-059>061-072>074-084-170000-
   CENTRAL IOWA

CITY           SKY/WX    TMP DP  RH WIND       PRES   REMARKS
AMES           PTCLDY    61  39  44 NW13G23   30.09R
ANKENY *       CLEAR     61  39  44 NW12      30.11R
BOONE *        MOCLDY    61  39  44 NW16      30.09R
CHARITON *     CLEAR     61  41  48 W8        30.11S
DES MOINES     PTCLDY    61  39  44 NW10      30.10S
GRINNELL*      PTCLDY    60  39  46 W9        30.09R
KNOXVILLE *    CLEAR     61  39  44 W8        30.09S
MARSHALLTOWN   CLEAR     59  40  49 W13       30.06R
NEWTON *       PTCLDY    61  37  41 NW12G22   30.09R
PELLA *        CLEAR     61  39  44 W6        30.10S
PERRY *        FAIR      61  36  38 W5        30.11R
$$

IAZ004>006-015-016-023>025-035-036-170000-
   NORTH CENTRAL IOWA

CITY           SKY/WX    TMP DP  RH WIND       PRES   REMARKS
ALGONA *       CLOUDY    57  30  35 NW13G21   30.10R
CLARION *      CLOUDY    57  34  41 NW13      30.08R
ESTHERVILLE    PTCLDY    56  31  38 W14       30.09R
FORT DODGE *   CLOUDY    58  37  45 NW8       30.10R
MASON CITY     CLOUDY    54  32  43 NW13      30.08R
FOREST CITY *  FAIR      55  32  41 NW14      30.07R
IOWA FALLS *   CLOUDY    59  35  40 W10       30.08R
$$

IAZ007>011-017>019-026>030-037>042-050>054-066-170000-
   NORTHEAST IOWA

CITY           SKY/WX    TMP DP  RH WIND       PRES   REMARKS
CEDAR RAPIDS   FAIR      58  39  49 W12       30.04S
CHARLES CITY * FAIR      55  30  38 NW14G22   30.05R
CLINTON *      FAIR      57  38  48 W10       30.04R
DECORAH *      FAIR      55  32  41 VRB7G17   30.01R
DUBUQUE        FAIR      57  34  41 W13G25    30.02R
MONTICELLO *   FAIR      59  34  38 W12G21    30.03R
OELWEIN *      CLOUDY    57  32  38 NW14G21   30.04R
WATERLOO       CLOUDY    58  33  39 NW16      30.04R
$$

IAZ064-065-067-068-078-170000-
   EAST CENTRAL IOWA

CITY           SKY/WX    TMP DP  RH WIND       PRES   REMARKS
DAVENPORT      FAIR      59  36  42 W10       30.06R
IOWA CITY      FAIR      59  40  49 W9        30.07S
MT. PLEASANT * CLEAR     61  37  41 W8        30.09R
MUSCATINE *    FAIR      61  37  41 W12       30.07S
QUAD CITIES    FAIR      59  38  45 W13       30.05R
$$

IAZ062-063-075>077-085>089-095>099-170000-
   SOUTHEAST IOWA

CITY           SKY/WX    TMP DP  RH WIND       PRES   REMARKS
BURLINGTON     CLEAR     58  37  45 SW9       30.09S
FAIRFIELD *    CLEAR     59  37  44 W9        30.08S
FORT MADISON * CLEAR     57  37  47 SW9       30.10S
KEOKUK *       CLEAR     57  37  47 SW9       30.11S
OSKALOOSA *    FAIR      60  40  46 W9        30.10R
OTTUMWA        CLEAR     60  40  47 W10       30.09S
WASHINGTON *   CLEAR     61  39  44 W12       30.09R
$$

ABBREVIATIONS USED IN REMARKS
   TC - TEMPERATURES IN CELSIUS
  WCI - WIND CHILL INDEX
   HX - HEAT INDEX
  VSB - VISIBILITY
$$



ASUS43 KDMX 162306
RWRIA

WEATHER ROUNDUP FOR IOWA
NATIONAL WEATHER SERVICE DES MOINES IA
600 PM CDT TUE OCT 16 2018

NOTE: "FAIR" INDICATES FEW OR NO CLOUDS BELOW 12,000 FEET WITH NO
SIGNIFICANT WEATHER AND/OR OBSTRUCTIONS TO VISIBILITY.

* - THESE STATIONS ARE NOT NWS STATIONS...THUS NOT UNDER NWS
QUALITY CONTROL.  THEY ALSO DO NOT REPORT WEATHER SUCH
AS PRECIPITATION OR FOG.

IAZ001>003-012>014-020>022-031>034-043>046-170000-
   NORTHWEST IOWA

CITY           SKY/WX    TMP DP  RH WIND       PRES   REMARKS
CARROLL *      CLOUDY    61  39  44 NW14G22   30.12R
CHEROKEE *     PTCLDY    58  36  43 W12       30.13S
DENISON *      CLEAR     61  39  44 NW13G21   30.15R
LE MARS *      PTCLDY    59  37  44 NW9       30.15R
ORANGE CITY *  CLEAR     57  36  44 NW16G22   30.15R
SHELDON *      CLEAR     57  30  35 NW12G20   30.11S
SIOUX CITY     PTCLDY    60  40  47 NW12G23   30.15R
SPENCER        CLEAR     57  30  35 NW17      30.12R
STORM LAKE *   CLEAR     57  36  44 NW17G23   30.12R
$$

IAZ055>058-069>071-079>083-090>094-170000-
   SOUTHWEST IOWA

CITY           SKY/WX    TMP DP  RH WIND       PRES   REMARKS
ATLANTIC *     PTCLDY    61  41  48 N8        30.13R
AUDUBON *      CLEAR     61  37  41 NW6       30.14R
CLARINDA *     CLEAR     64  39  39 NW7       30.16S
COUNCIL BLFS * CLEAR     64  37  36 N10G18    30.13S
CRESTON *      CLEAR     61  41  48 W9        30.14S
HARLAN  *      MOCLDY    61  39  44 NW9       30.14R
LAMONI         CLEAR     62  40  44 W7        30.13S
RED OAK *      CLEAR     64  39  39 W6        30.14S
SHENANDOAH *   CLEAR     66  41  39 W7        30.14S
$$

IAZ047>049-059>061-072>074-084-170000-
   CENTRAL IOWA

CITY           SKY/WX    TMP DP  RH WIND       PRES   REMARKS
AMES           PTCLDY    61  39  44 NW13G23   30.09R
ANKENY *       CLEAR     61  39  44 NW12      30.11R
BOONE *        MOCLDY    61  39  44 NW16      30.09R
CHARITON *     CLEAR     61  41  48 W8        30.11S
DES MOINES     PTCLDY    61  39  44 NW10      30.10S
GRINNELL*      PTCLDY    60  39  46 W9        30.09R
KNOXVILLE *    CLEAR     61  39  44 W8        30.09S
MARSHALLTOWN   CLEAR     59  40  49 W13       30.06R
NEWTON *       PTCLDY    61  37  41 NW12G22   30.09R
PELLA *        CLEAR     61  39  44 W6        30.10S
PERRY *        FAIR      61  36  38 W5        30.11R
$$

IAZ004>006-015-016-023>025-035-036-170000-
   NORTH CENTRAL IOWA

CITY           SKY/WX    TMP DP  RH WIND       PRES   REMARKS
ALGONA *       CLOUDY    57  30  35 NW13G21   30.10R
CLARION *      CLOUDY    57  34  41 NW13      30.08R
ESTHERVILLE    PTCLDY    56  31  38 W14       30.09R
FORT DODGE *   CLOUDY    58  37  45 NW8       30.10R
MASON CITY     CLOUDY    54  32  43 NW13      30.08R
FOREST CITY *  FAIR      55  32  41 NW14      30.07R
WEBSTER CITY * CLOUDY    59  34  38 NW10G17   30.07S
IOWA FALLS *   CLOUDY    59  35  40 W10       30.08R
$$

IAZ007>011-017>019-026>030-037>042-050>054-066-170000-
   NORTHEAST IOWA

CITY           SKY/WX    TMP DP  RH WIND       PRES   REMARKS
CEDAR RAPIDS   FAIR      58  39  49 W12       30.04S
CHARLES CITY * FAIR      55  30  38 NW14G22   30.05R
CLINTON *      FAIR      57  38  48 W10       30.04R
DECORAH *      FAIR      55  32  41 VRB7G17   30.01R
DUBUQUE        FAIR      57  34  41 W13G25    30.02R
MONTICELLO *   FAIR      59  34  38 W12G21    30.03R
OELWEIN *      CLOUDY    57  32  38 NW14G21   30.04R
WATERLOO       CLOUDY    58  33  39 NW16      30.04R
$$

IAZ064-065-067-068-078-170000-
   EAST CENTRAL IOWA

CITY           SKY/WX    TMP DP  RH WIND       PRES   REMARKS
DAVENPORT      FAIR      59  36  42 W10       30.06R
IOWA CITY      FAIR      59  40  49 W9        30.07S
MT. PLEASANT * CLEAR     61  37  41 W8        30.09R
MUSCATINE *    FAIR      61  37  41 W12       30.07S
QUAD CITIES    FAIR      59  38  45 W13       30.05R
$$

IAZ062-063-075>077-085>089-095>099-170000-
   SOUTHEAST IOWA

CITY           SKY/WX    TMP DP  RH WIND       PRES   REMARKS
BURLINGTON     CLEAR     58  37  45 SW9       30.09S
FAIRFIELD *    CLEAR     59  37  44 W9        30.08S
FORT MADISON * CLEAR     57  37  47 SW9       30.10S
KEOKUK *       CLEAR     57  37  47 SW9       30.11S
OSKALOOSA *    FAIR      60  40  46 W9        30.10R
CENTERVILLE *  FAIR      59  39  47 CALM      30.13S
OTTUMWA        CLEAR     60  40  47 W10       30.09S
WASHINGTON *   CLEAR     61  39  44 W12       30.09R
$$

ABBREVIATIONS USED IN REMARKS
   TC - TEMPERATURES IN CELSIUS
  WCI - WIND CHILL INDEX
   HX - HEAT INDEX
  VSB - VISIBILITY
$$





Office: FSD ASUS43 KFSD 162302 RWRSD WEATHER ROUNDUP FOR SOUTH DAKOTA NATIONAL WEATHER SERVICE SIOUX FALLS SD 600 PM CDT TUE OCT 16 2018 NOTE: "FAIR" INDICATES FEW OR NO CLOUDS BELOW 12,000 FEET WITH NO SIGNIFICANT WEATHER AND/OR OBSTRUCTIONS TO VISIBILITY. SDZ001>005-009-010-012>017-170000- NORTHWEST AND NORTH CENTRAL SOUTH DAKOTA CITY SKY/WX TMP DP RH WIND PRES REMARKS BUFFALO N/A 57 33 40 NW21 30.23S FAITH N/A 55 34 45 NW18 30.23R MOBRIDGE CLEAR 57 32 38 NW15 30.16S $$ SDZ012>016-024>037-041>051-057-063-072>074-170000- SOUTHWEST AND SOUTH CENTRAL SOUTH DAKOTA CITY SKY/WX TMP DP RH WIND PRES REMARKS RAPID CTY ARPT PTSUNNY 59 34 39 NW14 30.27S PIERRE PTCLDY 59 36 42 N13 30.19R CUSTER MOSUNNY 50 29 44 W13 30.33R ELLSWORTH AFB MOSUNNY 58 35 41 N15 30.27R PHILIP CLOUDY 60 36 40 NW17G25 30.23R PINE RIDGE SUNNY 62 35 36 N9G18 30.27R SPEARFISH PTSUNNY 55 34 44 NW13G23 30.30S WINNER FAIR 59 37 44 NW12 30.21R $$ SDZ004>011-016>023-039-040-170000- NORTHEAST SOUTH DAKOTA CITY SKY/WX TMP DP RH WIND PRES REMARKS ABERDEEN CLEAR 54 28 36 NW18G30 30.16S WATERTOWN CLEAR 50 28 42 NW21G35 30.14R BROOKINGS CLOUDY 54 29 38 NW16G24 30.13R SISSETON N/A 49 29 46 NW15G31 30.12R $$ SDZ017-020-022-023-036>040-048>070-170000- SOUTHEAST SOUTH DAKOTA CITY SKY/WX TMP DP RH WIND PRES REMARKS SIOUX FALLS PTCLDY 58 33 39 NW14G24 30.14R HURON PTCLDY 56 31 38 NW13G24 30.17R MITCHELL PTCLDY 58 35 42 NW15 30.18R YANKTON PTCLDY 57 41 55 NW9 30.17R $$ ABBREVIATIONS USED IN REMARKS TC - TEMPERATURE IN CELSIUS WCI - WIND CHILL INDEX HX - HEAT INDEX VSB - VISIBILITY ASUS43 KFSD 162302 RWRFSD WEATHER ROUNDUP FOR SE SOUTH DAKOTA/SW MINNESOTA/NW IOWA NATIONAL WEATHER SERVICE SIOUX FALLS SD 600 PM CDT TUE OCT 16 2018 NOTE: "FAIR" INDICATES FEW OR NO CLOUDS BELOW 12,000 FEET WITH NO SIGNIFICANT WEATHER AND OR OBSTRUCTIONS TO VISIBILITY. SDZ038>040-050-052>070-170000- SOUTHEAST SOUTH DAKOTA CITY SKY/WX TMP DP RH WIND PRES REMARKS BROOKINGS CLOUDY 54 29 38 NW16G24 30.13R CHAMBERLAIN NOT AVBL HURON PTCLDY 56 31 38 NW13G24 30.17R MADISON N/A 54 32 43 NW16G28 30.15R MITCHELL PTCLDY 58 35 42 NW15 30.18R SIOUX FALLS PTCLDY 58 33 39 NW14G24 30.14R WINNER FAIR 59 37 44 NW12 30.21R YANKTON PTCLDY 57 41 55 NW9 30.17R $$ MNZ071-072-080-081-089-090-097-098-170000- SOUTHWEST MINNESOTA CITY SKY/WX TMP DP RH WIND PRES REMARKS FAIRMONT PTCLDY 54 31 41 NW14 30.08R JACKSON PTCLDY 54 30 40 NW13G22 30.10R LUVERNE CLEAR 55 28 35 NW13G21 30.14R MARSHALL CLEAR 54 29 38 NW18G26 30.10R MONTEVIDEO CLEAR 52 25 35 N16G24 30.11R PIPESTONE CLEAR 55 32 41 NW17 30.13R REDWOOD FALLS CLEAR 53 28 38 NW17G30 30.08R TRACY PTCLDY 54 32 43 NW12G20 30.10R WINDOM PTCLDY 54 30 40 NW10 30.09R WORTHINGTON CLEAR 54 31 41 NW21G26 30.12R $$ IAZ001>003-012>014-020>022-031-032-NEZ013-014-SDZ071-170000- NORTHWEST IOWA CITY SKY/WX TMP DP RH WIND PRES REMARKS CHEROKEE PTCLDY 58 36 43 W12 30.13S DENISON CLEAR 61 39 44 NW13G21 30.15R ESTHERVILLE PTCLDY 56 31 38 W14 30.09R ORANGE CITY CLEAR 57 36 44 NW16G22 30.15R SHELDON CLEAR 57 30 35 NW12G20 30.11S SIOUX CITY PTCLDY 60 40 47 NW12G23 30.15R SPENCER CLEAR 57 30 35 NW17 30.12R STORM LAKE CLEAR 57 36 44 NW17G23 30.12R $$ ABBREVIATIONS USED IN REMARKS TC - TEMPERATURE IN CELSIUS WCI - WIND CHILL INDEX HX - HEAT INDEX VSB - VISIBILITY ASUS43 KFSD 162310 RWRSD WEATHER ROUNDUP FOR SOUTH DAKOTA NATIONAL WEATHER SERVICE SIOUX FALLS SD 600 PM CDT TUE OCT 16 2018 NOTE: "FAIR" INDICATES FEW OR NO CLOUDS BELOW 12,000 FEET WITH NO SIGNIFICANT WEATHER AND/OR OBSTRUCTIONS TO VISIBILITY. SDZ001>005-009-010-012>017-170000- NORTHWEST AND NORTH CENTRAL SOUTH DAKOTA CITY SKY/WX TMP DP RH WIND PRES REMARKS BUFFALO N/A 57 33 40 NW21 30.23S FAITH N/A 55 34 45 NW18 30.23R MOBRIDGE CLEAR 57 32 38 NW15 30.16S $$ SDZ012>016-024>037-041>051-057-063-072>074-170000- SOUTHWEST AND SOUTH CENTRAL SOUTH DAKOTA CITY SKY/WX TMP DP RH WIND PRES REMARKS RAPID CTY ARPT PTSUNNY 59 34 39 NW14 30.27S PIERRE PTCLDY 59 36 42 N13 30.19R CUSTER MOSUNNY 50 29 44 W13 30.33R ELLSWORTH AFB MOSUNNY 58 35 41 N15 30.27R PHILIP CLOUDY 60 36 40 NW17G25 30.23R PINE RIDGE SUNNY 62 35 36 N9G18 30.27R SPEARFISH PTSUNNY 55 34 44 NW13G23 30.30S WINNER FAIR 59 37 44 NW12 30.21R $$ SDZ004>011-016>023-039-040-170000- NORTHEAST SOUTH DAKOTA CITY SKY/WX TMP DP RH WIND PRES REMARKS ABERDEEN CLEAR 54 28 36 NW18G30 30.16S WATERTOWN CLEAR 50 28 42 NW21G35 30.14R BROOKINGS CLOUDY 54 29 38 NW16G24 30.13R SISSETON N/A 49 29 46 NW15G31 30.12R $$ SDZ017-020-022-023-036>040-048>070-170000- SOUTHEAST SOUTH DAKOTA CITY SKY/WX TMP DP RH WIND PRES REMARKS SIOUX FALLS PTCLDY 58 33 39 NW14G24 30.14R HURON PTCLDY 56 31 38 NW13G24 30.17R CHAMBERLAIN PTCLDY 60 39 46 N9G16 30.20R MITCHELL PTCLDY 58 35 42 NW15 30.18R YANKTON PTCLDY 57 41 55 NW9 30.17R $$ ABBREVIATIONS USED IN REMARKS TC - TEMPERATURE IN CELSIUS WCI - WIND CHILL INDEX HX - HEAT INDEX VSB - VISIBILITY ASUS43 KFSD 162310 RWRFSD WEATHER ROUNDUP FOR SE SOUTH DAKOTA/SW MINNESOTA/NW IOWA NATIONAL WEATHER SERVICE SIOUX FALLS SD 600 PM CDT TUE OCT 16 2018 NOTE: "FAIR" INDICATES FEW OR NO CLOUDS BELOW 12,000 FEET WITH NO SIGNIFICANT WEATHER AND OR OBSTRUCTIONS TO VISIBILITY. SDZ038>040-050-052>070-170000- SOUTHEAST SOUTH DAKOTA CITY SKY/WX TMP DP RH WIND PRES REMARKS BROOKINGS CLOUDY 54 29 38 NW16G24 30.13R CHAMBERLAIN PTCLDY 60 39 46 N9G16 30.20R HURON PTCLDY 56 31 38 NW13G24 30.17R MADISON N/A 54 32 43 NW16G28 30.15R MITCHELL PTCLDY 58 35 42 NW15 30.18R SIOUX FALLS PTCLDY 58 33 39 NW14G24 30.14R WINNER FAIR 59 37 44 NW12 30.21R YANKTON PTCLDY 57 41 55 NW9 30.17R $$ MNZ071-072-080-081-089-090-097-098-170000- SOUTHWEST MINNESOTA CITY SKY/WX TMP DP RH WIND PRES REMARKS FAIRMONT PTCLDY 54 31 41 NW14 30.08R JACKSON PTCLDY 54 30 40 NW13G22 30.10R LUVERNE CLEAR 55 28 35 NW13G21 30.14R MARSHALL CLEAR 54 29 38 NW18G26 30.10R MONTEVIDEO CLEAR 52 25 35 N16G24 30.11R PIPESTONE CLEAR 55 32 41 NW17 30.13R REDWOOD FALLS CLEAR 53 28 38 NW17G30 30.08R TRACY PTCLDY 54 32 43 NW12G20 30.10R WINDOM PTCLDY 54 30 40 NW10 30.09R WORTHINGTON CLEAR 54 31 41 NW21G26 30.12R $$ IAZ001>003-012>014-020>022-031-032-NEZ013-014-SDZ071-170000- NORTHWEST IOWA CITY SKY/WX TMP DP RH WIND PRES REMARKS CHEROKEE PTCLDY 58 36 43 W12 30.13S DENISON CLEAR 61 39 44 NW13G21 30.15R ESTHERVILLE PTCLDY 56 31 38 W14 30.09R ORANGE CITY CLEAR 57 36 44 NW16G22 30.15R SHELDON CLEAR 57 30 35 NW12G20 30.11S SIOUX CITY PTCLDY 60 40 47 NW12G23 30.15R SPENCER CLEAR 57 30 35 NW17 30.12R STORM LAKE CLEAR 57 36 44 NW17G23 30.12R $$ ABBREVIATIONS USED IN REMARKS TC - TEMPERATURE IN CELSIUS WCI - WIND CHILL INDEX HX - HEAT INDEX VSB - VISIBILITY
Office: EAX ASUS43 KEAX 162310 RWREAX WEATHER ROUNDUP FOR EASTERN KANSAS AND NORTHWEST MISSOURI NATIONAL WEATHER SERVICE KANSAS CITY/PLEASANT HILL MO 600 PM CDT TUE OCT 16 2018 KSZ040-057-103>105-MOZ028-029-037-043-170000- ...KANSAS CITY METROPOLITAN AREA... CITY SKY/WX TMP DP RH WIND PRES REMARKS K.C. INTL CLEAR 61 35 37 SW7 30.19R K.C. DOWNTOWN CLEAR 61 36 39 SW9 30.19R LEES SUMMIT CLEAR 60 36 40 W10 30.21R OLATHE - IXD CLEAR 60 36 40 SW6 30.21S OLATHE - OJC CLEAR 59 34 39 W7 30.20S LAWRENCE CLEAR 63 34 33 W9 30.20R $$ MOZ001>008-011>017-020>025-030>033-038>040-044>046-053-054-170000- ...NORTHERN AND CENTRAL MISSOURI... CITY SKY/WX TMP DP RH WIND PRES REMARKS ST. JOSEPH CLEAR 65 39 38 W7 30.16S MOSBY CLEAR 61 34 36 SW5 30.19R WARRENSBURG CLEAR 59 32 36 SW5 30.20S WHITEMAN AFB CLEAR 59 32 36 W7 30.16S CLINTON CLEAR 57 34 41 SW6 30.23R SEDALIA CLEAR 56 32 40 SW8 30.21S WARSAW NOT AVBL CHILLICOTHE N/A 63 37 38 VRB3 30.16S KIRKSVILLE CLEAR 59 36 42 W7 30.15S $$ MOZ041-047>049-056>058-063>065-088>090-097-170000- ...EASTERN AND SOUTHERN MISSOURI... CITY SKY/WX TMP DP RH WIND PRES REMARKS ST. LOUIS INTL PTCLDY 57 30 35 W10 30.18S SPIRIT OF STL CLEAR 56 34 43 SW5 30.18R COLUMBIA CLEAR 56 32 40 W8 30.20R JEFFERSON CITY CLEAR 58 29 33 W7 30.20R ROLLA CLEAR 54 33 45 W7 30.20F OSAGE BEACH CLEAR 57 35 43 W5 30.22S SPRINGFIELD CLOUDY 56 33 42 W7 30.23R BRANSON MOCLDY 50 39 66 CALM 30.25S JOPLIN PTCLDY 55 35 47 CALM 30.25S WEST PLAINS CLOUDY 51 39 63 W6 30.23S $$ IAZ060-094-KSZ022-034>040-054-083-096-NEZ052-066-093-170000- ...KANSAS...SOUTHEAST NEBRASKA AND IOWA... CITY SKY/WX TMP DP RH WIND PRES REMARKS TOPEKA CLEAR 64 34 32 W5 30.20R MANHATTAN CLEAR 65 40 39 W5 30.20R EMPORIA CLEAR 61 35 37 W6 30.23R CHANUTE CLEAR 61 33 35 SW6 30.25R WICHITA PTCLDY 64 32 30 NW6 30.24R OMAHA PTCLDY 64 38 38 N15 30.13R LINCOLN CLEAR 68 38 33 NW10 30.16R FALLS CITY CLEAR 64 41 42 W8 30.15S LAMONI CLEAR 62 40 44 W7 30.13S DES MOINES PTCLDY 61 39 44 NW10 30.10S $$